Notices

What's New in latest Release from April 7th, 2021:

- Updated Glossary, including Speed of Maximum Gust, and Total Hourly Precipitation

- Updated national and regional climate services offices contacts and prices information

- Addition of station inventory lists for 1981-2010, 1971-2000, and 1961-1990 Normals.

If you haven't already, please take our survey and provide feedback about our website: https://eccc.sondage-survey.ca/f/LanguageSelection.aspx?s=442ca660-fcf1-47c0-95a9-59707d6fd709

Hourly Data Report for November 03, 2020

SHEARWATER RCS
NOVA SCOTIA
Current Station Operator: ECCC - MSC

44°37'47.000" N
63°30'48.000" W
24.00 m
8205092
71264
AAW

Download Data

Hourly Data (November 2020)
Hourly Data Report for November 3, 2020
TIME
LST
Temp Definition
°C
Dew Point Definition
°C
Rel Hum Definition
%
Precip. Amount Definition
mm

Wind Dir Definition
10's deg

Wind Spd Definition
km/h
Visibility Definition
km
Stn Press Definition
kPa
Hmdx Definition


Wind Chill Definition


Weather Definition


00:00 2.0 -3.2 68 0.0 26 22   99.41     LegendNANA
01:00 1.5 -3.4 70 0.0 25 24   99.56     LegendNANA
02:00 1.2 -3.0 74 0.0 25 16   99.66     LegendNANA
03:00 1.3 -4.1 67 0.0 25 18   99.77     LegendNANA
04:00 1.0 -5.0 64 0.2 24 16   99.81     LegendNANA
05:00 0.7 -6.4 59 0.0 24 22   99.87     LegendNANA
06:00 0.3 -6.0 63 0.0 25 14   99.96     LegendNANA
07:00 -0.1 -6.3 63 0.0 25 12   100.04   -4 LegendNANA
08:00 0.7 -6.1 61 0.0 26 8   100.12     LegendNANA
09:00 1.0 -6.3 58 0.0 31 7   100.10     LegendNANA
10:00 1.9 -6.8 52 0.0 1 6   100.06     LegendNANA
11:00 2.5 -5.7 55 0.0 5 13   99.95     LegendNANA
12:00 2.7 -5.3 56 0.0 7 14   99.85     LegendNANA
13:00 2.2 -4.3 62 0.0 6 13   99.87     LegendNANA
14:00 0.1 -1.1 92 0.6 36 16   99.94     LegendNANA
15:00 -0.7 -1.3 96 1.4 34 18   100.15   -6 LegendNANA
16:00 -1.7 -2.1 97 1.1 35 25   100.32   -8 LegendNANA
17:00 -2.0 -2.5 97 0.2 34 21   100.53   -8 LegendNANA
18:00 -2.3 -3.2 94 0.0 33 18   100.70   -8 LegendNANA
19:00 -2.1 -4.3 84 0.0 32 19   100.90   -8 LegendNANA
20:00 -2.0 -5.5 77 0.0 31 17   101.14   -7 LegendNANA
21:00 -2.4 -6.4 74 0.0 32 13   101.30   -7 LegendNANA
22:00 -2.7 -6.8 73 0.0 31 11   101.47   -7 LegendNANA
23:00 -2.5 -7.0 71 0.0 32 14   101.65   -7 LegendNANA

Notes on Data Quality.

Legend

  • E = Estimated
  • M = Missing
  • NA = Not Available*
  • [empty] = Indicates an unobserved value
Date modified: